Weather Roundup
Issued by NWS Chicago, IL

Home | Current Version | Previous Version | Text Only | Print | Product List | Glossary Off
Versions: 1 2 3 4 5 6 7 8 9 10 11 12 13 14 15 16 17 18 19 20 21 22 23 24 25 26 27 28 29 30 31 32 33 34 35 36 37 38 39 40 41 42 43 44 45 46 47 48 49 50

000
NZUS59 KLOT 182210
HRRLOT

CHICAGO AREA WEATHER ROUNDUP
NATIONAL WEATHER SERVICE CHICAGO/ROMEOVILLE IL
400 PM CST THU DEC 18 2014

NOTE: "FAIR" INDICATES FEW OR NO CLOUDS BELOW 12,000 FEET WITH NO
SIGNIFICANT WEATHER AND/OR OBSTRUCTIONS TO VISIBILITY.

* THESE STATIONS ARE NOT UNDER NWS QUALITY CONTROL. THEY ALSO MAY NOT
  REPORT WEATHER SUCH AS PRECIPITATION OR FOG.

ILZ005-006-012>014-019>023-182300-
NORTHEAST ILLINOIS

CITY           SKY/WX    TMP DP  RH WIND       PRES   REMARKS
OHARE          CLOUDY    28  19  69 W5        30.22S WCI  23
MIDWAY         CLOUDY    29  19  66 SW6       30.23S WCI  23
AURORA         CLOUDY    28  18  66 NW5       30.24S WCI  23
LANSING*       CLOUDY    27  18  71 CALM      30.24S
JOLIET*        MOCLDY    25  17  71 CALM      30.25S
WAUKEGAN       CLOUDY    28  19  69 W6        30.22S WCI  22
DUPAGE AIRPORT CLOUDY    28  18  66 NW6       30.22S WCI  22
WHEELING       CLOUDY    28  18  66 NW6       30.25R WCI  22
KANKAKEE*      CLOUDY    27  21  76 W5        30.25S WCI  22
MORRIS*        CLOUDY    27  20  77 N3        30.24S
LEWIS AIRPORT* CLOUDY    26  18  73 W5        30.24S WCI  20
NORTHERLY IS     N/A     29  20  69 NE3         N/A
$$

WIZ051-052-058>065-066-070>072-182300-
SOUTHEAST WISCONSIN

CITY           SKY/WX    TMP DP  RH WIND       PRES   REMARKS
MILWAUKEE      CLOUDY    29  23  78 NW7       30.23R WCI  22
KENOSHA*       CLOUDY    27  23  85 N8        30.23R WCI  19
RACINE*        CLOUDY    28  24  85 NW7       30.24S FOG     WCI  21
BURLINGTON     CLOUDY    25  23  91 NW7       30.23R WCI  17
WAUKESHA       CLOUDY    27  25  93 NW6       30.23R WCI  20
WEST BEND      CLOUDY    28  21  74 N6        30.22S WCI  22
$$

INZ001>003-010>013-019-020-182300-
NORTHWEST INDIANA

CITY           SKY/WX    TMP DP  RH WIND       PRES   REMARKS
GARY*          CLOUDY    28  16  59 W6        30.25  WCI  22
MICHIGAN CITY* NOT AVBL
RENSSELAER*    NOT AVBL
VALPARAISO     MOCLDY    26  18  71 W3        30.23R
$$

LMZ740>746-182300-
SOUTHERN LAKE MICHIGAN

STATION/POSITION TIME  SKY/WX   TEMP WIND        PRES    VSBY
                                AIR  DIR/SP/G
                 (UTC)          (F)  (DEG/KT/KT) (MB)    (MI)
HARRISON CRIB    2200            27  360/  4/  6   N/A
BURNHAM HARBOR   2200            29   70/  5/  6   N/A
CALUMET HARBOR   2200            27  200/  3/  5 1022.6F
BURNS HARBOR     NOT AVBL
MICHIGAN CITY    NOT AVBL
$$

ABBREVIATIONS USED IN REMARKS
   TC - TEMPERATURE IN CELSIUS
  WCI - WIND CHILL INDEX
   HX - HEAT INDEX
  VSB - VISIBILITY
$$


USA.gov is the U.S. government's official web portal to all federal, state and local government web resources and services.